Theta_e
315 315 314 314 314 315 315 315 315 315 315 316 314 313 312 311 309 307 306 306 307 308 307 306 307 307 308 308 309 307 309 312 316 317 314 316 316 318 320 315 313 310 311 313 312 314 313 313 313 313 315 317 318 318 317 319 328 330 333 333 324 323 320 318 322 322 322 321 320 317 319 321 317 316 314 313 316 315 316 317 322 333 334 332 329 324 330 336
315 315 314 313 314 314 314 314 314 315 315 315 314 314 312 310 309 307 306 306 306 307 307 307 307 307 308 308 309 308 310 313 317 318 315 318 319 318 318 313 311 311 312 312 313 314 315 315 312 313 319 319 318 319 318 318 323 329 331 327 328 333 321 314 319 319 320 320 319 318 318 320 317 317 314 315 315 314 318 315 324 346 340 331 331 329 334 336
315 315 314 314 314 314 314 314 314 314 314 314 314 313 311 309 308 308 307 306 306 307 307 307 307 307 308 308 309 309 312 313 315 317 315 319 320 314 311 311 311 311 312 312 314 314 315 316 312 314 318 317 319 320 321 320 319 329 333 323 327 335 321 314 317 317 319 318 319 318 316 317 316 316 314 315 316 315 320 317 321 343 343 335 333 331 335 335
315 314 313 314 314 313 313 314 314 314 313 313 313 312 311 310 308 308 307 307 306 306 306 307 307 307 308 308 309 311 314 313 314 319 317 319 319 314 310 310 310 311 312 312 314 315 315 315 311 314 317 316 320 319 320 322 317 322 331 330 326 324 319 317 317 318 318 315 318 318 315 316 315 314 314 315 317 315 318 320 319 334 342 336 333 331 333 333
314 314 313 313 314 313 313 313 313 313 313 313 312 312 311 310 308 308 307 307 307 306 306 306 307 308 308 308 309 313 315 310 313 319 318 319 319 314 312 311 311 311 311 312 314 314 313 313 310 314 317 316 319 319 318 320 319 319 320 325 323 318 318 317 318 319 316 315 318 317 315 316 315 314 316 316 318 319 317 317 316 326 337 335 333 331 331 332
314 313 312 313 313 313 313 313 313 313 313 312 312 311 311 309 309 308 307 307 307 306 306 305 306 307 308 309 309 314 315 309 314 319 317 318 317 314 315 314 312 311 313 313 313 314 314 313 312 315 316 316 318 319 318 315 319 322 316 317 319 317 318 317 318 319 317 318 317 317 316 314 315 315 316 315 317 322 318 318 314 318 330 333 332 331 331 331
314 313 312 312 312 313 312 312 312 312 312 312 312 311 310 309 308 307 307 307 306 307 306 305 306 307 310 310 311 317 318 314 316 317 314 315 315 315 315 314 313 313 314 314 314 317 316 314 315 317 316 316 316 316 317 315 318 324 318 316 317 316 319 317 317 319 320 320 317 316 315 315 318 316 315 314 318 321 316 315 309 311 327 332 330 331 330 330
314 313 313 312 312 312 312 312 312 312 312 312 311 311 310 309 308 307 307 306 306 307 306 306 306 308 311 312 315 319 317 316 317 314 312 314 314 314 314 314 315 315 315 315 316 317 316 315 314 314 315 315 315 316 315 314 317 319 317 317 317 316 318 317 317 320 320 319 316 316 316 317 318 315 315 317 321 322 315 314 310 314 328 332 332 333 329 328
314 313 313 312 311 311 311 312 311 312 312 312 311 311 310 309 308 307 306 306 306 306 306 306 306 309 313 315 317 316 314 317 316 311 312 312 313 314 314 315 315 315 316 316 317 316 314 316 315 313 314 313 314 315 315 315 316 316 317 318 318 316 316 316 316 318 318 317 316 316 317 318 317 314 317 321 321 319 317 318 316 323 334 334 333 331 328 327
314 313 313 312 312 311 311 311 311 312 312 312 311 310 310 309 309 308 306 306 305 306 306 306 308 310 314 314 313 312 316 318 314 311 313 313 314 315 315 316 316 316 316 316 316 314 315 316 316 314 314 314 315 315 314 314 315 317 319 318 318 317 315 315 316 316 317 317 316 317 318 318 316 315 319 322 318 316 319 320 316 325 337 332 331 331 327 327
314 313 312 312 311 311 310 310 310 311 311 311 311 310 310 309 309 308 307 306 306 307 307 307 309 311 313 314 311 311 316 317 312 312 313 313 315 316 317 316 316 317 316 316 315 315 316 315 314 313 312 313 315 317 315 315 316 318 320 317 317 318 315 315 317 316 316 316 317 318 317 317 316 316 319 318 315 315 320 321 316 322 328 326 329 329 325 325
314 313 312 312 311 311 310 310 310 310 310 310 311 311 310 311 310 309 307 306 308 308 308 308 310 313 314 313 314 314 316 315 312 313 314 314 315 316 317 316 316 317 316 316 316 316 315 314 314 314 313 314 316 316 315 316 316 317 320 318 318 322 320 316 316 317 316 316 318 317 314 315 317 318 318 316 315 316 318 320 319 319 320 319 324 326 324 323
313 313 312 312 311 310 310 310 309 310 310 310 310 310 311 312 311 309 307 308 309 310 310 309 311 316 314 310 314 317 316 314 312 314 314 315 315 316 316 316 316 316 316 316 315 315 314 315 316 316 315 317 317 313 315 317 316 318 318 320 321 323 322 316 315 317 316 317 317 314 311 317 319 317 316 315 315 316 316 318 317 318 318 316 317 321 322 320
313 313 312 311 310 310 310 310 310 310 310 310 310 311 312 312 311 308 308 310 311 311 311 311 312 316 313 310 315 318 316 313 313 314 314 315 315 315 315 315 315 315 315 315 314 314 315 314 315 316 315 317 316 312 318 319 317 318 313 322 325 318 321 320 316 317 315 316 317 311 312 319 320 317 316 315 315 316 318 318 316 315 315 314 315 315 318 317
314 313 312 311 310 309 310 310 310 310 310 310 311 312 312 311 310 308 310 312 312 312 312 312 314 314 312 313 315 316 314 312 314 314 315 316 315 315 315 315 315 314 314 313 314 315 315 315 316 318 315 315 315 316 322 321 322 323 313 321 325 315 324 328 317 318 317 315 316 312 315 319 320 319 317 315 314 315 318 320 318 317 316 315 315 314 314 314
313 312 311 310 309 309 310 309 310 310 311 311 311 311 310 310 310 311 313 313 313 313 313 315 316 312 310 314 315 314 312 313 315 314 316 316 315 315 314 314 314 314 314 314 316 315 314 318 317 317 317 316 319 321 325 325 327 328 317 319 324 317 322 324 317 318 319 316 316 313 316 320 319 318 318 316 315 315 319 321 320 319 319 318 317 315 314 313
313 312 310 309 309 309 309 309 310 310 311 311 310 310 310 312 313 313 315 314 315 315 314 316 315 311 309 311 315 315 313 314 314 314 316 316 315 314 313 314 313 313 315 315 316 315 314 318 315 315 318 318 321 323 321 319 321 323 319 319 323 320 318 321 320 318 317 317 317 315 316 320 320 319 320 319 317 316 319 321 322 321 320 320 318 316 314 313
312 310 309 309 309 309 309 310 310 310 311 311 311 312 313 314 315 315 315 314 315 313 312 314 311 311 311 310 315 317 314 314 314 314 316 316 315 314 315 314 312 313 317 317 317 316 317 320 320 320 320 316 319 324 324 321 321 322 320 319 320 317 317 323 322 317 316 317 317 318 317 320 320 318 319 318 315 316 320 321 321 321 320 320 318 317 315 314
310 309 309 309 309 310 311 311 311 311 311 312 313 314 314 314 315 316 314 313 312 310 312 313 310 313 314 312 316 317 315 314 314 314 316 316 314 314 316 314 315 318 318 320 316 315 323 323 320 320 318 317 318 323 328 327 325 325 326 328 324 318 317 322 321 316 316 317 319 320 318 318 319 317 318 318 314 314 319 320 319 318 317 317 316 316 315 315
310 310 310 310 311 311 311 311 311 311 312 313 313 313 314 316 317 316 315 315 313 310 313 314 312 316 317 316 317 316 315 314 313 314 315 315 314 316 315 315 322 322 319 324 317 316 327 325 319 321 318 318 319 321 324 323 322 323 325 328 325 320 319 318 319 318 315 316 319 320 319 319 319 317 318 316 313 313 316 318 317 316 316 315 316 316 315 316
311 311 311 311 312 312 312 312 312 312 313 314 314 314 315 316 315 313 315 316 312 309 313 314 312 316 317 316 316 314 315 315 314 315 315 315 316 316 316 318 322 321 320 326 321 319 329 324 319 326 324 318 318 319 320 318 321 323 325 328 323 320 319 316 318 320 316 315 318 321 319 318 317 317 316 313 312 314 316 316 316 316 315 314 315 316 315 315
312 312 311 311 312 312 312 312 312 312 314 315 316 316 315 313 312 311 312 312 308 308 313 313 313 316 315 313 314 314 317 318 315 316 316 315 316 316 318 320 321 320 319 321 322 322 325 324 324 328 323 317 316 317 320 323 327 329 326 324 320 319 318 317 319 320 316 315 319 324 321 317 316 315 314 314 313 314 314 314 315 315 314 315 315 315 314 315
313 313 313 313 313 313 313 313 313 313 314 316 315 315 313 311 311 311 311 309 308 311 313 314 318 319 315 313 315 314 316 317 317 318 315 314 317 317 319 320 320 321 318 319 323 322 321 324 326 325 318 315 317 317 320 323 326 329 326 320 319 320 320 319 321 318 315 314 317 322 320 316 317 318 320 315 312 314 315 314 315 315 315 316 315 315 314 315
315 315 314 314 314 314 314 314 313 312 314 316 315 313 311 311 311 311 313 312 312 314 313 312 316 319 317 314 314 315 315 316 317 316 314 315 317 317 319 319 320 321 319 320 322 321 322 320 318 320 318 319 318 317 321 321 317 323 334 332 323 322 322 320 321 319 316 315 318 320 318 322 326 329 334 321 312 315 317 315 315 317 317 315 315 316 315 315
316 316 316 316 315 315 315 315 314 312 314 315 314 313 311 311 310 310 315 314 312 313 310 310 313 316 316 313 314 317 316 316 317 315 313 315 316 316 317 317 320 322 319 319 319 320 322 317 315 318 319 322 321 320 325 325 317 316 329 332 323 324 326 322 324 323 319 318 318 315 315 328 335 333 333 323 314 315 315 314 317 320 319 316 316 315 313 313
318 318 317 317 317 316 316 318 316 313 314 313 312 313 312 312 311 310 315 315 314 312 309 309 312 312 314 314 316 317 315 315 315 314 313 315 315 315 316 315 318 320 317 317 319 320 318 316 319 323 324 324 322 322 321 324 322 314 318 324 324 331 328 323 323 319 320 319 314 316 317 320 325 322 321 318 316 319 317 317 319 317 315 315 315 314 314 317
318 318 318 318 317 316 317 319 316 314 316 313 313 313 311 312 311 310 314 314 315 314 310 309 308 310 313 314 315 315 314 316 314 313 314 315 313 313 316 317 316 317 316 319 322 319 317 320 321 326 333 327 321 321 318 322 324 314 319 325 328 330 327 329 328 320 323 320 318 328 325 315 318 318 315 314 315 320 320 319 320 314 311 312 312 314 318 322
317 318 319 319 318 318 318 318 316 316 316 314 313 313 312 312 309 312 317 313 312 312 310 309 307 310 313 311 313 314 313 316 317 315 313 313 313 314 319 320 318 318 316 319 323 318 318 323 322 327 334 328 322 322 319 326 326 317 321 326 326 328 331 339 337 326 323 316 319 331 320 313 325 325 318 314 313 317 319 319 317 313 315 318 317 318 322 325
315 316 318 319 319 318 318 318 318 316 313 312 314 312 310 310 308 314 317 311 310 311 310 309 309 312 314 311 312 314 314 316 318 316 313 313 313 313 317 318 319 320 315 318 326 320 316 319 321 326 327 322 321 321 322 329 325 319 321 324 326 329 332 337 335 325 319 315 322 330 317 312 322 326 321 314 313 318 320 320 318 317 324 330 331 332 332 330
312 315 317 319 318 318 318 318 318 317 313 312 314 312 309 312 312 312 310 310 313 312 309 309 310 313 314 312 311 313 316 318 317 316 315 316 315 313 314 313 318 325 323 324 327 322 316 314 316 319 319 320 320 319 322 325 319 318 326 328 326 330 333 338 337 324 313 319 329 327 319 312 314 325 326 314 314 319 319 321 321 322 327 329 331 333 335 339
311 315 317 318 318 318 319 319 318 318 315 311 312 311 311 317 318 311 307 311 317 314 309 310 311 313 313 312 313 314 317 318 315 316 316 316 316 316 314 313 318 324 324 324 324 321 318 315 316 316 316 320 323 319 320 324 323 323 332 330 321 325 331 334 335 323 313 325 330 323 319 314 312 323 325 319 318 316 315 319 320 321 323 324 327 329 333 341
311 314 316 317 317 317 319 319 319 319 314 311 313 315 315 316 314 312 311 312 316 315 312 312 312 313 312 313 315 315 319 319 316 316 318 319 318 317 317 320 323 321 318 322 323 319 318 319 318 316 315 319 325 325 321 326 330 323 324 325 317 319 322 324 328 324 320 323 321 319 319 314 315 318 316 320 320 316 317 318 318 321 320 321 326 330 333 336
309 313 315 316 317 317 317 318 318 319 313 310 314 320 321 316 310 313 315 313 313 315 314 314 314 313 313 313 315 316 318 318 316 316 317 319 319 317 318 320 322 322 322 324 324 319 320 324 320 316 317 317 320 324 321 323 325 318 318 321 318 318 316 319 324 320 319 320 317 316 317 317 321 317 314 318 314 315 319 317 322 329 327 326 331 337 340 338
308 311 314 315 316 316 317 317 317 317 313 312 315 317 318 315 312 314 314 313 314 315 315 315 314 312 312 313 313 315 316 315 315 316 317 317 318 318 318 315 316 325 328 323 321 320 319 324 323 318 320 318 316 319 323 325 321 318 320 317 317 323 321 320 323 319 319 321 317 314 316 324 324 313 313 316 314 316 316 315 321 326 327 330 331 335 340 340
307 309 311 313 314 315 316 316 316 316 315 315 314 313 312 312 315 316 314 315 318 316 314 314 313 312 313 312 312 314 317 317 315 315 317 318 317 319 319 315 315 324 326 317 318 320 317 320 323 318 317 319 318 318 321 323 319 318 319 314 314 321 322 318 317 320 320 319 319 316 319 327 321 312 314 314 315 316 311 312 316 317 322 326 327 332 336 340
306 308 309 310 311 313 315 316 316 316 316 317 313 311 311 313 319 318 315 318 319 315 313 312 313 314 312 312 313 312 315 319 317 315 317 316 316 317 318 316 315 317 318 317 320 320 317 320 320 316 316 318 318 317 318 320 320 317 316 319 318 318 322 319 314 316 315 313 318 317 319 324 316 314 318 314 313 316 314 317 314 313 322 326 329 339 339 339
306 306 308 309 310 312 314 316 316 315 317 318 313 310 313 316 320 320 320 319 315 313 314 313 314 315 312 313 315 313 314 319 317 315 317 315 315 316 316 316 315 313 314 316 319 320 322 323 318 316 318 316 314 316 319 318 319 320 320 322 318 313 321 324 318 321 319 315 320 317 316 321 316 318 323 315 310 313 318 321 314 311 319 322 326 336 339 338
304 305 306 308 310 312 314 316 315 315 318 317 312 313 317 316 316 319 320 318 314 314 317 316 316 315 314 315 315 313 314 318 316 316 317 315 315 317 315 315 315 313 313 313 313 316 319 319 316 314 318 318 315 316 319 316 315 320 322 321 319 319 323 321 316 321 320 316 322 321 315 315 315 318 320 313 313 316 315 316 315 314 316 318 320 324 330 333
303 305 307 307 309 312 315 315 314 315 317 315 312 315 318 316 315 317 318 318 318 317 316 320 319 315 314 316 315 314 314 316 316 317 316 314 315 316 313 314 315 314 313 312 312 315 316 315 315 314 315 317 316 316 320 320 315 315 316 315 319 324 325 322 317 318 319 317 321 322 317 316 318 318 316 312 316 318 314 313 315 314 315 318 319 321 328 332
303 307 308 307 309 312 313 314 314 314 314 313 313 314 315 316 317 316 315 317 320 317 316 323 322 316 316 317 315 314 315 316 316 316 316 314 313 314 312 312 314 314 312 310 312 316 314 311 314 314 312 316 319 318 319 320 318 317 317 316 318 319 319 321 319 317 319 321 322 319 315 321 324 318 314 315 316 314 317 317 318 321 323 324 322 326 333 335
303 305 307 308 310 312 312 313 314 313 311 311 312 312 313 316 318 316 314 316 319 317 318 324 324 323 323 320 317 316 316 317 316 315 316 314 312 315 314 313 315 315 312 311 312 316 314 312 319 320 316 318 323 320 317 317 317 317 317 317 318 318 318 319 317 316 316 318 322 319 313 318 323 316 313 317 315 315 322 322 321 325 326 324 323 327 333 333
304 303 305 309 311 311 312 314 314 313 312 312 311 311 313 315 316 316 314 315 317 317 317 319 322 326 326 322 321 320 317 318 317 315 317 316 315 317 315 314 316 314 313 313 314 316 317 319 324 325 321 321 322 317 314 316 317 315 317 318 316 317 319 318 319 321 318 315 318 320 316 314 315 313 315 319 316 318 325 323 318 319 319 323 328 331 334 335
305 304 306 310 311 311 312 314 314 313 313 313 313 313 314 316 316 316 315 315 317 318 317 318 319 321 322 322 323 322 318 316 317 317 319 318 317 318 319 318 316 314 313 313 312 313 317 319 319 321 322 324 324 319 316 317 317 315 317 319 317 320 322 323 324 323 321 320 318 317 317 314 310 313 317 319 317 317 319 318 316 318 320 322 325 326 327 327
304 305 307 310 310 311 312 313 314 314 314 314 314 314 315 316 317 316 315 316 317 317 317 318 318 317 319 321 322 322 320 317 317 318 320 319 316 319 324 323 317 314 313 315 315 313 314 318 318 318 320 322 324 322 319 318 318 318 323 322 319 322 323 321 321 317 317 324 322 316 317 315 312 314 317 320 322 318 317 319 319 321 322 320 319 322 324 325
302 303 305 307 308 310 311 311 312 313 314 314 315 315 315 316 317 317 316 315 316 317 317 317 318 319 320 320 321 321 320 320 321 320 318 319 319 320 325 324 319 316 318 321 319 313 316 321 318 316 317 316 318 320 320 321 320 320 326 325 318 320 320 318 319 317 317 324 323 317 316 313 312 314 316 320 323 319 320 325 324 322 322 318 319 327 330 328
302 303 303 304 306 308 309 310 311 312 313 314 314 315 315 315 316 316 316 316 315 316 317 317 319 320 319 320 321 321 319 320 321 321 319 320 321 320 320 321 320 320 321 321 319 318 323 324 316 313 315 313 317 322 321 321 322 319 322 322 318 317 318 318 321 320 317 318 319 317 316 314 313 315 315 317 319 318 319 323 323 321 320 318 320 329 331 325
302 303 303 304 306 307 308 309 310 311 313 313 313 314 314 315 316 316 315 316 316 316 316 317 317 318 318 318 319 320 319 318 319 320 321 322 322 319 317 318 319 320 319 317 318 322 324 322 317 315 316 318 323 327 320 317 319 319 319 321 319 318 317 317 319 318 316 317 317 316 316 314 313 314 314 314 315 317 318 320 320 318 319 322 323 325 323 320
300 302 302 303 305 307 307 308 310 310 311 312 312 313 314 314 315 316 315 315 315 315 316 317 317 317 317 317 318 319 319 319 319 320 320 321 322 320 318 319 317 319 320 317 320 327 325 321 319 318 318 320 323 323 319 318 320 320 320 320 319 318 317 317 317 316 317 317 316 315 316 317 314 312 314 317 317 317 317 319 319 317 319 323 322 319 318 318
299 300 301 301 303 305 306 307 308 309 310 310 311 312 313 314 314 315 315 315 315 315 316 317 317 317 317 316 316 317 318 318 319 319 318 319 321 320 321 321 317 316 320 320 321 324 324 322 321 317 317 320 320 320 320 320 320 320 322 322 320 319 318 316 315 315 315 317 318 318 318 317 314 312 314 318 320 318 316 318 318 316 316 317 317 318 318 318
299 301 302 301 301 302 304 305 307 308 308 309 310 310 311 313 314 314 314 315 316 315 315 316 317 317 317 316 316 316 317 317 317 319 319 318 319 319 320 322 318 315 318 320 319 319 319 321 322 319 318 320 320 319 319 319 319 319 321 323 322 320 318 315 314 315 315 317 318 318 318 317 314 313 315 316 317 317 317 317 317 315 313 314 316 318 319 319
299 300 302 302 302 302 303 304 306 307 308 308 309 309 309 311 312 313 313 314 315 316 315 315 316 316 315 316 317 316 317 317 317 320 318 315 317 318 317 320 318 316 318 320 319 319 319 320 321 320 320 320 320 320 318 318 318 318 319 321 320 319 319 316 316 317 316 317 317 317 318 317 314 315 317 316 316 318 318 316 315 314 314 316 319 319 318 318
299 299 300 301 302 303 303 304 305 305 306 306 307 308 308 309 310 312 313 313 314 316 315 315 316 316 316 316 316 316 317 317 317 317 315 314 318 319 318 319 317 316 319 318 316 318 321 322 321 321 321 320 319 321 320 318 319 319 319 319 317 317 318 317 317 318 316 316 317 317 317 316 315 316 317 316 316 317 317 315 313 314 316 318 318 316 314 315
Wind_Speed
13 12 13 11 10 11 10 8 8 7 6 5 6 7 9 10 10 11 12 13 12 11 10 9 9 8 7 6 5 2 2 4 5 6 6 6 8 5 5 6 5 6 6 5 5 5 2 0 0 1 2 1 1 0 2 2 2 4 3 3 1 2 1 3 6 6 4 5 6 5 5 8 4 1 1 2 6 4 4 5 3 5 6 3 1 11 27 29
13 11 11 10 11 11 9 8 8 7 6 5 6 7 9 10 10 11 11 12 12 11 9 9 9 8 7 6 5 2 3 5 4 4 7 8 6 5 6 7 7 7 6 5 5 4 3 1 2 4 4 1 1 2 2 1 2 3 3 3 2 5 3 3 5 5 3 6 7 5 5 7 6 5 3 2 1 3 5 4 5 5 6 6 8 20 28 28
14 11 9 11 11 10 9 8 7 6 5 5 6 7 9 10 10 11 10 11 11 10 9 8 9 8 7 7 4 2 3 5 2 2 7 9 6 6 8 8 7 7 6 5 5 3 3 0 1 3 4 1 1 2 2 1 1 2 4 3 4 6 3 2 3 3 4 6 9 5 4 3 4 5 3 4 5 3 4 3 1 1 2 3 7 17 24 25
14 11 9 11 11 10 9 8 7 6 5 5 7 7 9 10 10 11 10 10 10 10 9 8 8 8 7 7 4 4 4 4 1 3 7 9 6 7 8 8 7 6 5 5 4 2 1 1 2 3 4 1 3 3 1 1 1 2 4 4 5 4 2 2 1 2 3 4 9 6 4 2 3 4 3 7 6 2 6 7 7 8 9 9 7 13 21 22
12 9 10 12 12 10 9 8 7 5 4 5 6 8 8 10 10 10 10 9 10 10 9 8 8 7 7 6 4 4 3 3 2 3 6 9 8 9 8 7 6 5 5 5 4 2 1 1 4 4 4 1 1 3 2 3 2 3 1 4 4 4 2 3 3 3 1 5 6 7 6 4 2 2 4 10 7 5 7 8 11 11 13 14 13 14 17 17
12 9 10 13 12 10 9 8 6 5 5 5 6 8 8 9 9 9 9 9 9 9 9 8 7 7 7 5 5 4 3 2 2 2 5 8 9 10 8 6 5 4 4 5 4 2 2 3 5 3 2 2 2 2 3 2 3 3 2 2 1 3 4 2 2 3 2 8 6 7 4 3 5 1 4 9 8 7 7 9 10 10 16 19 17 16 14 14
12 9 10 13 13 10 9 8 6 6 5 5 6 7 8 8 9 9 9 9 9 9 9 8 7 7 6 5 5 2 2 2 2 4 6 8 10 10 8 5 5 5 5 5 2 3 4 5 4 4 4 3 3 3 2 1 5 5 2 2 1 1 3 1 1 2 4 7 5 4 3 4 6 3 2 5 8 8 7 4 5 11 17 18 15 14 14 16
12 10 11 14 13 11 9 8 6 6 5 5 6 7 7 7 8 8 9 9 9 9 8 8 7 6 6 6 4 3 1 3 4 6 7 9 10 9 8 6 6 5 6 5 2 4 4 4 3 4 4 1 4 3 1 4 5 4 3 3 0 1 1 1 3 4 4 3 1 5 4 3 6 3 2 6 9 8 5 2 6 11 14 13 13 13 13 14
13 12 12 13 12 10 9 9 6 6 5 4 7 8 7 7 7 7 8 9 9 9 8 8 8 7 8 5 4 3 2 4 7 8 8 10 10 9 8 7 7 6 6 4 3 5 3 2 3 4 4 3 4 4 2 4 1 2 5 4 3 1 1 2 3 3 2 1 2 5 1 4 3 1 2 8 9 5 3 5 6 11 11 11 11 12 13 12
13 13 11 11 11 9 9 9 7 6 5 4 5 7 8 7 7 7 8 9 9 9 8 9 8 8 9 4 5 3 4 5 8 8 9 10 10 10 9 8 8 7 6 4 4 6 4 4 4 4 6 2 3 3 1 4 3 3 6 5 4 2 1 1 1 0 1 2 1 4 2 6 4 2 4 8 5 5 7 6 6 9 11 12 10 11 15 15
14 13 11 11 11 10 9 9 8 6 5 5 5 6 7 6 7 7 8 9 8 9 9 9 9 9 8 4 5 3 3 6 8 8 9 10 10 10 9 8 8 6 5 4 5 6 5 6 6 5 3 2 3 2 1 2 3 5 7 5 5 5 2 2 3 1 1 1 2 6 1 5 5 1 6 6 2 7 8 7 7 8 9 10 10 10 12 15
13 13 12 11 11 10 9 9 9 7 6 5 5 6 7 6 6 7 8 8 8 9 9 10 10 10 6 3 3 4 4 7 9 9 9 10 10 9 8 8 7 5 4 5 5 6 5 4 6 5 1 3 4 2 1 2 4 5 6 5 5 8 3 2 1 1 0 1 2 4 2 4 2 6 7 3 1 5 8 8 7 7 7 7 9 8 8 14
14 13 12 11 11 10 9 9 9 8 7 6 6 6 6 5 5 7 8 7 8 9 10 11 12 10 5 1 2 3 5 8 9 9 9 9 9 9 8 7 6 4 3 4 5 6 5 3 6 6 3 6 3 1 3 3 4 3 4 5 2 7 4 5 1 1 1 2 2 3 1 6 7 11 8 5 3 4 7 8 7 7 6 6 7 6 8 12
14 14 13 12 11 10 10 10 8 7 6 6 6 5 5 5 5 7 7 6 8 9 10 11 12 9 3 1 2 3 7 9 10 9 9 9 9 9 8 6 5 4 3 5 7 7 4 4 7 6 3 4 3 2 4 5 3 2 2 3 2 2 3 7 1 4 4 1 4 6 1 6 8 11 9 8 5 7 7 7 7 7 6 6 6 7 8 11
15 14 13 13 12 11 11 10 9 8 6 6 6 5 5 4 6 7 7 7 8 9 10 11 11 7 2 0 1 5 9 9 10 10 9 10 9 8 6 7 6 5 5 6 8 6 4 6 6 5 1 2 4 5 4 4 3 3 2 1 3 2 4 7 2 6 5 0 5 7 2 6 8 9 9 7 3 8 8 7 7 7 7 7 6 7 8 10
14 14 14 14 12 11 11 11 10 9 7 6 5 5 5 6 7 8 8 8 9 9 9 8 8 5 3 1 1 5 6 7 10 10 9 9 8 7 8 8 6 6 6 6 7 5 5 5 4 3 3 3 5 6 4 4 4 3 3 2 2 2 2 4 2 1 4 1 2 3 2 4 4 6 8 6 2 5 5 6 7 7 7 7 7 7 8 9
14 14 13 12 12 12 11 11 10 9 7 5 6 7 8 8 8 7 8 10 11 9 7 5 5 3 2 1 2 3 4 7 11 10 9 7 7 9 9 6 4 6 6 5 5 3 5 5 2 1 3 4 3 5 5 2 2 3 2 1 3 3 2 2 2 3 3 3 1 1 2 6 6 7 9 7 3 2 5 7 7 7 7 7 7 7 8 9
14 13 12 12 12 11 10 9 8 8 7 8 10 11 11 11 9 8 10 13 12 8 6 3 3 1 1 2 3 4 5 9 11 10 9 7 8 9 6 3 5 6 5 5 3 3 4 4 2 2 3 3 2 5 4 4 5 4 2 2 2 2 2 2 3 2 3 2 1 1 3 9 12 10 10 9 3 3 7 7 7 7 7 8 7 7 8 9
13 12 12 13 12 11 10 9 8 7 9 10 13 15 13 10 8 7 9 10 7 4 2 3 4 3 3 5 3 4 7 10 10 8 7 6 7 6 4 4 6 6 5 3 2 2 2 3 4 3 2 2 4 5 6 7 8 8 5 5 4 3 3 4 4 3 1 2 4 5 5 9 11 10 10 11 5 4 8 8 7 8 7 8 7 8 9 9
13 13 13 14 13 11 10 10 8 9 10 14 17 15 9 6 4 3 1 1 2 2 2 4 5 3 0 1 4 9 10 8 5 5 6 5 6 6 4 4 6 6 4 4 2 0 4 4 2 5 7 7 7 7 6 5 6 7 5 5 4 4 2 3 3 4 2 3 5 5 5 9 10 11 12 10 6 4 8 9 9 9 8 8 9 10 10 10
14 14 14 14 13 12 10 9 9 10 12 16 17 9 4 5 4 2 2 2 3 2 1 3 4 3 1 4 9 10 8 4 1 2 5 5 5 6 1 3 5 4 1 4 3 2 5 5 6 7 9 8 6 6 7 6 5 6 6 5 2 2 2 2 2 4 1 2 4 3 4 10 11 11 12 8 7 7 10 10 11 11 10 8 9 12 11 9
13 13 13 13 12 11 10 9 9 10 13 14 10 4 2 3 4 6 5 2 3 2 3 2 3 3 2 5 9 5 5 4 1 1 4 3 3 4 2 4 5 4 1 3 4 4 4 2 9 8 6 5 4 5 7 7 5 5 4 4 2 1 1 3 3 4 3 1 4 5 5 11 11 11 12 10 9 9 9 9 10 10 9 8 10 11 11 9
13 13 12 11 10 9 9 9 9 11 13 11 6 5 4 4 6 6 5 4 1 1 2 2 2 3 2 3 6 3 4 5 4 4 5 5 2 3 5 5 5 4 3 4 6 5 2 5 8 5 6 7 6 4 7 6 4 4 4 4 2 2 1 1 4 4 3 1 2 4 5 10 8 6 10 9 7 7 8 8 10 9 9 11 11 10 10 11
13 13 12 11 9 8 8 7 7 10 12 8 6 7 7 7 5 4 3 3 2 1 1 1 2 4 3 3 5 5 4 3 5 5 6 7 4 3 4 5 5 5 3 6 8 7 4 6 3 5 5 7 7 4 7 6 1 1 3 5 3 2 3 3 2 2 3 3 3 4 5 7 5 5 7 6 3 6 5 4 8 8 9 11 10 10 11 11
13 12 11 11 9 8 7 5 6 10 10 6 5 5 5 6 4 4 3 3 1 2 2 2 1 3 5 4 5 5 3 1 1 3 6 7 6 3 3 2 4 4 5 7 8 5 5 5 3 7 5 5 7 4 4 7 3 2 2 5 6 6 5 2 2 5 4 4 4 5 4 6 6 5 7 6 5 6 5 4 8 9 9 8 9 11 9 7
14 13 12 11 9 8 6 3 6 10 9 4 4 4 2 3 4 4 4 4 1 2 1 3 1 5 7 4 4 4 3 1 2 1 5 6 3 3 3 1 2 4 6 6 5 3 2 2 4 7 6 6 6 3 3 5 6 1 3 5 6 7 7 3 1 3 1 3 3 4 3 5 7 5 8 6 6 8 8 7 10 9 8 7 8 8 6 5
11 13 13 11 10 8 4 4 8 9 5 3 6 6 3 4 4 3 4 5 3 2 4 1 1 5 7 4 4 6 3 4 2 3 3 3 1 3 4 3 2 2 3 4 2 2 2 3 5 6 7 6 5 2 4 6 7 2 3 6 7 7 6 4 4 3 2 3 4 4 4 3 6 6 7 5 5 9 10 10 11 8 8 8 7 7 7 8
8 11 14 13 10 8 4 7 10 6 2 5 9 8 5 5 4 2 5 3 2 2 4 1 0 5 4 1 4 5 2 3 5 1 2 3 0 3 4 5 5 4 2 5 4 4 2 4 4 5 6 4 4 4 5 7 6 4 4 7 6 6 7 5 6 3 1 2 5 5 2 2 6 7 6 5 4 8 9 10 10 8 8 8 7 8 8 6
5 7 13 14 12 8 5 7 8 4 2 6 10 10 7 6 2 4 4 2 1 2 1 1 3 2 1 3 4 3 1 2 3 2 2 3 0 3 3 5 6 6 3 4 6 3 1 4 6 7 5 4 4 2 3 6 4 3 6 7 5 6 6 5 5 3 2 2 5 6 3 3 6 7 4 3 3 6 8 8 8 8 8 7 6 6 4 5
3 4 10 14 12 9 7 5 6 5 3 5 11 11 8 4 3 5 2 3 2 1 0 2 2 2 5 6 2 2 2 2 1 1 2 1 2 4 2 2 6 6 5 6 4 1 2 1 2 4 3 5 5 3 1 3 5 6 7 7 6 6 5 4 3 3 2 3 7 7 4 2 4 6 4 3 4 4 3 5 7 6 7 6 5 5 5 5
3 3 8 13 11 9 6 3 5 4 1 6 12 11 6 3 3 5 5 3 2 2 1 1 1 3 10 10 3 1 3 3 0 4 3 1 2 3 2 2 4 5 4 4 3 4 5 3 1 1 1 4 6 5 4 4 5 6 5 5 4 4 5 4 4 3 1 5 6 5 2 3 4 6 4 5 6 4 3 4 6 5 5 6 5 5 5 5
3 4 7 11 11 9 6 3 6 4 1 8 11 6 5 3 1 4 3 1 1 3 4 3 3 5 8 7 4 3 3 2 0 4 5 3 3 3 3 4 4 4 2 2 1 3 2 1 2 3 0 4 6 5 5 6 6 6 5 6 4 1 3 3 3 0 3 6 4 3 1 3 6 8 8 11 9 6 6 6 6 4 2 4 6 6 6 5
4 5 7 9 10 10 7 4 6 6 4 7 6 4 6 4 5 5 2 1 2 3 4 4 3 6 9 6 4 4 3 2 2 2 2 3 4 5 3 2 5 5 3 4 3 2 1 4 3 1 1 2 6 6 3 0 1 4 5 5 4 3 1 3 4 2 4 5 3 3 2 3 5 4 9 13 8 4 5 6 6 6 5 5 6 6 6 6
4 5 6 8 9 10 9 6 5 7 6 5 4 4 5 5 5 4 4 3 2 3 2 4 7 8 7 5 5 5 3 1 4 4 3 3 4 5 5 3 3 5 4 4 3 5 4 4 3 4 2 3 5 5 6 7 4 4 4 6 5 5 5 4 4 3 4 3 3 4 2 3 2 2 6 9 7 3 4 6 4 5 6 5 6 6 6 6
5 6 5 6 8 7 8 8 6 6 6 4 4 4 7 7 3 3 5 4 1 3 3 4 8 8 4 1 2 5 3 2 3 4 4 5 5 6 5 5 5 4 5 5 2 2 4 4 6 2 1 7 7 4 5 7 2 2 3 5 3 5 5 2 3 5 3 1 3 2 3 5 4 6 8 6 6 5 4 5 4 5 6 4 5 6 5 5
4 5 4 3 5 6 7 9 7 6 5 5 5 7 7 5 3 3 4 3 4 5 7 5 4 5 4 2 2 6 2 3 4 4 3 3 3 5 6 5 6 6 6 6 3 1 2 3 5 2 2 3 5 3 3 4 3 2 2 3 5 4 7 4 2 0 3 1 4 1 4 5 3 6 8 5 7 7 4 3 2 4 6 6 5 6 5 5
3 4 3 3 5 7 7 7 6 5 4 4 7 9 3 1 3 3 1 1 4 7 9 5 2 4 5 3 4 6 2 3 4 3 3 3 2 5 6 3 5 9 7 4 2 3 5 2 4 1 2 4 0 3 2 2 4 5 3 6 3 2 4 4 1 3 3 2 5 1 5 5 2 5 6 6 3 7 5 5 1 1 3 3 5 6 5 5
3 3 2 2 7 9 9 10 8 5 4 2 9 9 1 1 2 0 1 1 4 5 5 5 3 4 5 4 4 6 5 4 5 4 3 3 4 5 8 3 4 9 9 4 2 3 5 2 5 1 3 4 4 3 0 3 3 5 4 3 4 2 1 2 2 2 1 3 5 4 4 4 4 6 4 3 4 8 5 5 3 2 2 3 3 2 3 5
2 2 1 4 9 10 13 16 10 6 4 2 8 6 1 1 3 2 1 2 2 4 4 5 2 3 5 6 5 6 6 6 7 5 4 4 4 5 9 6 4 9 10 6 4 3 4 4 4 2 1 1 3 2 5 1 3 3 2 2 3 2 4 3 3 3 3 3 3 4 5 4 6 6 6 7 8 8 4 2 2 3 3 5 2 3 2 4
1 2 0 6 11 12 17 18 10 5 2 3 4 2 1 0 3 4 1 2 2 1 3 4 3 4 5 5 5 6 5 5 8 6 3 5 5 4 6 7 4 6 8 7 5 2 3 3 4 2 2 1 2 4 7 7 5 3 3 4 2 1 2 2 1 3 4 4 3 3 5 6 6 4 8 10 9 6 2 2 5 5 6 7 2 4 4 5
2 2 0 6 13 16 16 11 4 4 4 2 3 2 1 1 3 3 2 3 1 0 1 3 4 4 5 4 4 5 5 4 7 5 3 5 5 3 5 7 6 6 6 5 4 3 2 3 4 2 1 3 5 5 6 9 8 6 6 7 7 4 4 3 3 1 2 3 4 3 5 8 5 4 6 7 6 6 6 7 6 6 6 6 2 4 6 6
3 2 1 6 15 17 11 4 1 4 3 3 3 3 2 2 2 2 1 3 2 1 1 2 2 3 4 4 3 5 6 5 5 6 4 5 6 4 3 3 6 8 7 5 6 4 3 4 4 3 3 6 7 5 4 5 4 2 3 5 6 4 5 6 5 4 1 2 3 3 3 7 3 4 5 6 6 6 6 6 5 4 5 3 3 3 4 5
2 1 1 9 18 14 5 2 3 3 3 3 5 4 4 3 2 1 2 2 1 1 0 0 1 2 2 2 3 5 6 4 5 6 3 3 5 5 2 1 5 8 7 4 5 3 3 4 4 1 3 4 5 5 2 1 1 2 2 2 5 3 3 5 5 4 3 4 3 3 5 6 2 0 3 3 3 3 3 3 4 3 2 3 4 5 5 5
1 0 1 7 16 11 3 3 5 4 4 4 5 5 4 3 3 4 4 5 4 3 2 2 2 1 1 2 3 4 5 3 4 5 3 3 4 1 3 3 3 8 6 4 5 5 4 3 4 3 1 3 4 3 3 2 1 3 3 3 5 5 5 4 2 3 2 6 7 5 7 6 3 3 1 3 3 3 2 2 2 4 1 2 4 4 3 4
1 0 2 1 5 4 2 2 3 4 5 5 6 7 5 3 3 5 6 6 5 4 2 2 2 3 2 2 4 2 4 3 3 3 2 2 3 2 4 4 1 6 4 2 4 6 5 4 5 6 6 6 6 5 5 3 2 2 3 6 7 7 9 5 2 3 4 6 7 6 9 8 2 1 3 6 6 5 5 6 3 3 3 4 5 6 7 7
1 1 1 2 2 0 1 1 2 3 6 7 5 5 7 5 2 2 5 5 5 4 2 1 3 5 3 2 3 0 2 2 3 3 3 3 3 2 1 3 3 3 0 1 3 5 4 3 6 9 10 10 8 7 5 5 6 5 6 8 9 9 10 7 4 6 8 5 4 7 11 12 8 4 3 4 5 4 6 6 6 6 5 4 4 5 5 6
1 1 3 2 0 1 2 1 2 2 4 7 5 4 8 8 2 1 2 2 4 5 3 1 2 3 3 4 3 2 2 1 2 2 3 3 3 2 1 1 4 2 2 1 2 4 4 3 6 8 8 7 6 5 5 7 9 10 9 9 10 9 10 10 9 11 8 4 8 12 9 11 17 12 6 3 3 5 6 5 5 6 6 6 5 6 7 8
1 0 1 2 1 3 4 3 6 4 3 5 4 3 7 9 6 4 3 2 2 3 3 2 6 10 10 8 6 3 3 2 1 3 3 3 2 1 3 1 2 3 3 2 2 3 5 4 4 5 4 4 5 5 5 6 5 6 7 9 10 9 11 13 16 16 10 8 12 13 8 11 19 10 4 6 7 6 6 6 5 4 5 6 7 8 9 9
1 1 2 1 1 3 3 3 6 6 5 5 3 3 8 11 11 7 3 3 2 2 4 5 8 11 11 10 9 6 6 6 6 6 5 4 3 2 0 1 1 4 3 3 1 1 3 3 2 5 3 3 5 5 5 5 3 2 4 7 8 10 13 15 16 14 9 7 12 10 5 11 15 5 4 6 8 6 5 5 5 5 5 6 7 8 9 9
2 1 1 0 1 1 1 3 6 7 6 5 4 3 5 10 13 9 4 6 6 4 6 9 9 8 9 10 10 10 10 10 10 8 6 5 4 3 2 3 2 3 3 1 1 1 2 2 1 4 2 4 5 6 5 6 5 3 4 5 8 10 11 11 10 6 4 7 11 9 9 13 10 3 4 7 6 6 7 7 7 6 3 4 6 8 9 10
3 1 2 2 1 1 1 2 5 5 5 6 6 5 5 8 11 9 3 5 8 8 9 13 9 6 6 8 10 11 10 11 11 8 9 10 7 5 4 4 4 3 1 1 0 2 2 1 2 4 2 5 4 6 5 5 5 3 7 9 11 10 7 6 6 6 7 9 9 6 9 13 6 3 5 5 5 6 10 8 5 5 2 6 8 8 8 8
5 2 3 4 1 1 2 2 4 5 5 7 9 8 6 5 6 8 4 4 6 9 10 12 9 6 5 9 13 12 8 7 5 3 5 6 4 4 4 4 6 7 5 3 1 1 4 3 1 3 3 5 3 4 5 5 4 5 10 13 14 10 8 7 5 7 10 9 6 6 9 11 6 2 6 8 5 6 9 6 2 2 5 7 6 4 5 6
Wind_Direction
184 197 201 190 182 181 177 179 180 182 185 180 178 180 181 180 179 177 181 187 191 198 197 197 201 206 213 219 225 227 200 182 163 172 184 193 196 197 193 189 183 176 175 173 175 177 168 79 257 40 93 110 36 240 347 6 70 56 85 101 143 196 197 179 186 202 169 162 194 209 163 130 149 213 158 64 57 76 57 27 354 4 16 12 276 152 157 163
199 202 203 190 185 184 180 179 180 185 183 178 180 185 187 185 182 179 182 187 191 198 198 198 201 204 212 217 221 216 190 176 158 196 198 185 191 202 185 176 175 175 172 167 174 161 125 76 18 60 84 80 334 9 9 351 86 92 115 103 201 210 200 198 197 211 190 160 170 186 170 146 166 174 132 132 127 108 91 10 355 25 22 40 109 141 152 161
202 208 209 191 187 186 182 180 181 186 181 181 186 184 189 189 185 184 185 188 192 198 199 200 200 203 210 212 220 213 175 155 148 230 201 190 193 189 176 173 174 173 174 171 174 161 140 152 37 86 81 66 311 41 65 13 104 155 115 99 231 218 202 236 201 222 250 175 153 167 177 155 182 169 138 158 160 151 161 185 108 85 194 129 132 146 154 163
199 209 206 184 185 190 184 180 181 186 183 186 192 189 190 188 187 189 188 190 194 199 203 203 199 200 206 210 214 197 158 120 190 228 193 196 195 182 177 177 174 172 181 178 182 199 266 324 99 108 88 71 327 36 141 261 200 140 106 162 219 185 146 287 266 287 290 154 149 148 139 178 217 170 148 144 138 241 233 207 192 188 180 168 169 161 160 168
198 203 196 181 183 188 184 182 183 185 186 188 195 199 195 191 191 192 193 194 197 201 206 206 201 197 201 206 195 193 147 107 214 214 187 194 186 182 178 176 178 179 182 180 196 203 285 40 87 85 78 123 360 45 224 239 129 81 13 200 195 143 139 274 289 314 32 102 114 128 141 185 170 139 157 147 154 227 228 213 205 182 170 171 172 170 167 172
195 198 190 181 182 185 185 185 185 191 194 189 195 200 197 196 194 193 197 196 198 203 206 207 201 197 199 196 190 190 145 139 215 166 182 185 178 181 172 176 184 185 183 179 194 145 99 63 77 104 80 95 151 156 220 258 91 101 282 266 226 172 150 210 307 328 123 114 125 149 165 152 119 165 181 162 189 223 218 207 203 179 171 170 163 166 171 177
193 194 187 179 179 182 186 186 189 196 199 193 193 197 197 199 195 195 198 197 201 202 203 205 199 197 189 173 173 140 115 216 225 159 176 175 178 180 168 181 185 187 189 169 149 112 111 77 90 144 97 80 171 185 200 32 53 99 173 281 340 142 126 162 127 41 101 124 161 153 119 142 155 176 152 193 226 234 245 224 171 163 162 160 158 172 181 184
191 188 186 185 184 180 181 188 193 194 198 200 192 190 191 195 195 196 198 199 203 201 203 201 195 191 175 165 148 70 7 229 184 162 168 167 174 172 167 180 178 186 185 168 142 133 122 90 137 156 102 187 178 165 131 72 39 89 157 222 52 42 39 7 72 64 69 96 92 105 117 205 192 174 150 231 241 236 243 49 106 140 147 158 170 182 186 189
189 188 189 195 199 194 190 188 189 193 197 203 197 188 183 188 192 195 200 200 201 202 201 194 193 179 172 171 114 107 240 193 161 160 159 161 165 164 169 175 174 184 176 183 183 142 132 129 187 176 153 214 156 145 130 102 252 177 145 167 132 51 302 32 65 60 61 34 41 107 145 293 256 270 260 241 236 214 153 89 114 136 147 173 179 185 188 194
191 194 198 206 211 216 213 196 189 195 196 203 204 192 184 185 190 195 198 198 200 200 196 191 188 169 174 172 98 144 226 169 159 159 156 159 160 163 170 172 172 181 174 176 174 147 144 171 182 152 141 147 113 119 116 132 188 156 121 118 99 81 304 35 95 22 49 16 28 144 227 308 327 345 266 260 236 148 124 122 150 148 163 184 184 191 192 196
196 200 206 212 216 220 219 201 192 195 201 206 202 192 188 187 193 200 198 194 197 195 189 187 178 168 177 154 120 183 208 162 164 157 157 159 158 167 172 174 171 176 176 152 165 163 147 167 156 123 129 125 104 54 3 140 127 126 119 91 21 9 2 49 116 220 7 69 130 131 135 321 350 328 236 260 206 150 151 158 176 173 180 188 188 196 196 205
198 201 207 213 219 219 209 196 194 195 200 207 201 194 187 188 199 201 195 191 195 190 181 177 170 168 162 104 147 192 166 158 161 154 160 159 159 172 170 173 175 174 177 155 174 173 151 169 130 112 166 138 115 74 143 126 103 121 107 94 346 4 14 282 151 236 340 134 163 113 32 307 258 228 234 289 62 157 165 175 189 195 196 193 195 200 202 215
200 204 208 213 222 217 195 190 195 192 194 207 204 191 186 200 208 194 187 190 192 183 175 169 166 168 151 103 204 180 163 163 158 155 158 158 159 168 166 168 172 167 165 158 172 159 148 183 126 122 130 113 130 183 123 72 91 125 79 98 15 14 350 285 289 83 144 122 64 97 278 273 246 242 254 305 310 156 171 193 198 204 210 204 203 207 215 221
200 207 209 215 222 209 191 189 191 189 195 201 190 185 201 215 195 176 174 185 184 173 169 164 166 172 152 180 215 176 175 167 157 154 152 154 151 153 159 157 154 150 145 141 149 141 133 147 114 102 97 101 137 122 59 26 52 106 81 73 57 85 280 295 311 131 149 108 66 96 200 265 271 271 276 288 250 179 193 210 202 208 220 219 216 218 227 226
203 206 208 219 218 197 188 186 184 184 184 187 188 201 212 194 167 158 166 175 170 164 162 159 163 162 102 329 233 166 171 165 159 158 152 156 150 144 153 152 141 132 136 131 132 128 126 134 98 80 85 32 75 86 46 8 21 51 105 318 354 144 257 305 295 151 154 335 63 98 211 271 280 278 284 300 216 179 203 217 212 215 219 221 224 224 233 238
202 204 212 223 210 187 185 184 179 177 177 187 194 186 164 149 144 150 165 163 151 152 148 151 165 148 114 163 143 148 166 168 166 163 157 158 154 145 142 140 132 124 131 123 122 115 91 92 68 92 125 61 79 96 64 27 355 2 102 196 262 157 256 310 311 191 146 141 34 99 207 271 282 265 283 325 65 156 207 235 237 230 229 224 218 222 227 239
197 202 212 216 196 182 184 178 170 169 172 170 148 133 129 130 135 150 161 145 135 131 116 140 173 137 95 105 114 167 185 175 172 168 159 155 150 145 135 123 114 118 115 96 103 90 52 50 44 131 72 70 103 97 79 41 280 299 46 157 231 171 177 273 282 320 71 124 259 105 206 252 264 268 287 315 20 138 222 243 248 240 242 241 232 234 231 233
194 200 199 191 177 170 170 162 155 158 155 143 130 125 125 126 135 146 141 130 120 98 78 104 144 128 237 204 181 184 172 167 169 167 159 151 148 144 130 110 112 105 80 51 54 49 32 28 55 84 37 49 104 95 116 207 194 190 183 160 238 196 179 234 240 281 46 86 249 185 241 258 266 279 288 293 295 234 246 246 248 247 244 248 247 244 241 239
190 190 182 172 161 157 162 159 158 158 149 141 136 131 125 126 130 127 125 125 116 99 124 181 144 150 213 212 191 129 137 154 158 162 159 149 153 146 106 100 99 92 91 70 27 29 70 54 66 111 151 172 178 154 162 194 172 167 175 147 156 180 222 239 242 263 128 107 266 234 237 260 270 281 282 281 270 222 256 265 258 257 250 250 250 247 246 243
179 178 171 165 158 157 162 162 165 162 152 150 147 138 133 142 122 90 95 139 182 171 188 191 157 141 180 159 137 119 122 132 141 163 162 155 154 138 85 57 52 56 103 143 150 61 87 103 157 184 194 193 190 176 148 148 141 134 124 108 139 168 233 254 261 290 120 127 265 243 247 264 266 271 267 273 285 246 250 257 254 253 248 246 245 248 246 241
161 164 163 162 160 160 163 163 164 158 154 157 156 150 163 168 129 143 213 275 248 234 128 166 138 109 67 126 141 138 118 91 46 150 164 169 144 138 101 34 75 72 134 160 142 30 67 124 208 217 204 190 178 164 124 102 89 97 121 109 90 160 217 254 249 293 30 125 269 318 305 271 259 263 265 262 268 255 237 236 245 245 243 246 246 249 249 250
155 156 156 159 159 163 167 165 163 158 155 159 160 159 174 150 113 133 140 135 251 317 71 131 99 58 47 135 156 145 84 88 93 257 191 165 112 150 150 65 118 151 180 122 95 42 54 189 232 229 193 138 109 133 114 99 90 83 113 120 106 201 242 297 300 315 16 104 272 341 325 277 264 259 262 251 239 248 240 229 239 245 244 246 243 246 251 258
157 155 153 156 156 160 161 159 162 160 158 156 147 134 117 84 99 119 104 106 180 340 63 137 118 101 70 145 186 151 90 135 170 227 207 154 127 167 135 105 132 139 126 137 133 124 124 246 241 207 153 110 87 119 113 96 83 86 110 129 197 253 159 287 305 322 2 66 272 328 305 280 285 279 270 259 239 253 259 240 242 244 238 241 242 243 243 246
160 155 153 151 149 151 149 145 153 161 160 151 130 121 96 69 94 130 84 83 154 265 277 223 147 153 150 163 185 157 124 149 162 191 189 156 147 148 142 143 133 128 158 157 142 148 200 253 221 118 118 115 104 109 124 126 80 30 131 140 174 209 165 184 303 344 1 15 24 7 326 289 310 329 290 288 285 268 276 279 267 255 240 245 254 251 241 239
176 168 160 155 151 146 142 132 141 157 159 153 138 122 89 64 79 130 95 69 166 316 314 241 158 180 177 146 165 169 137 103 174 195 180 161 149 138 162 153 125 158 182 142 129 157 229 257 135 110 93 100 114 124 156 153 140 313 222 168 168 163 155 175 4 37 31 344 343 30 1 291 309 319 276 297 334 297 299 317 277 263 253 247 250 254 254 255
179 182 173 169 163 147 146 130 132 146 150 171 184 157 130 92 102 137 98 55 281 275 168 176 151 175 176 151 162 149 115 192 305 96 146 157 158 116 138 139 89 166 171 137 129 166 233 336 91 121 114 99 109 133 200 146 114 256 234 164 145 126 122 135 70 62 74 258 298 57 109 266 303 297 265 289 333 309 302 295 276 271 273 258 248 262 275 263
165 181 181 177 167 154 153 137 139 144 145 197 187 168 164 130 128 147 78 48 282 209 143 180 330 162 170 173 157 133 158 203 95 70 110 138 228 51 112 180 132 141 164 122 115 213 182 68 63 88 90 96 114 154 203 132 112 228 227 129 123 120 130 137 111 108 212 246 322 19 119 239 290 270 269 301 327 312 303 290 285 286 283 275 264 264 256 241
138 169 179 181 171 158 139 135 145 144 137 174 171 167 156 132 134 109 86 93 249 139 134 221 99 142 152 103 107 111 193 181 117 180 330 80 154 40 95 194 164 133 124 119 165 250 162 142 155 118 88 109 169 206 193 121 101 234 190 126 127 129 133 120 100 103 13 13 316 311 130 194 273 272 301 339 318 298 293 286 295 305 300 291 275 259 252 258
109 150 172 179 177 170 146 131 137 122 103 165 169 169 156 142 129 76 85 161 197 80 107 145 122 134 119 81 64 60 49 47 114 214 346 76 101 43 117 192 144 114 48 96 163 230 98 181 187 134 118 176 188 225 189 120 101 181 131 97 75 73 79 77 93 111 35 10 256 250 192 195 268 285 311 341 277 265 272 283 291 299 303 298 287 286 304 330
94 134 163 171 176 182 172 137 131 115 93 165 170 164 149 128 100 102 148 214 148 81 34 133 157 160 139 130 59 14 87 44 51 98 38 64 15 27 110 144 99 97 32 40 100 238 322 254 192 111 138 181 146 101 106 107 118 125 93 64 46 32 34 44 59 85 66 288 254 241 220 186 272 281 257 220 222 212 245 306 307 315 331 334 328 331 338 340
92 107 152 165 170 178 174 154 164 149 78 164 162 152 130 65 71 139 196 219 120 89 93 124 217 145 150 154 141 75 92 43 34 131 124 150 47 42 120 110 71 76 47 38 40 328 353 32 314 328 132 129 97 69 32 27 76 93 81 75 63 355 9 20 2 41 161 255 262 255 229 150 222 261 255 244 253 225 202 292 294 307 339 338 327 313 308 313
122 122 151 167 170 173 167 145 168 161 103 157 152 127 96 78 184 191 205 247 147 175 165 169 202 162 155 146 125 144 123 69 309 146 143 146 146 172 173 169 149 105 152 180 85 347 15 45 287 317 201 132 101 74 29 8 35 73 89 90 86 332 2 352 307 318 223 246 268 278 231 189 228 248 254 260 262 229 210 234 242 233 257 300 299 292 292 304
133 144 160 174 174 174 167 131 147 153 132 147 141 66 78 133 213 203 178 247 188 160 151 137 133 147 145 133 143 155 101 110 186 152 143 137 156 207 233 188 147 122 181 184 122 113 310 312 307 45 301 189 129 127 129 77 93 124 138 129 130 146 141 263 269 277 260 261 285 293 272 261 273 264 245 250 252 207 217 250 234 218 229 253 272 283 299 311
106 139 162 181 183 184 180 154 143 153 145 135 117 88 121 184 213 154 152 216 178 90 96 122 118 132 143 142 184 176 89 111 178 134 134 133 145 205 233 232 155 99 111 150 150 163 175 276 234 169 215 195 167 172 157 149 161 175 154 136 152 162 163 210 222 218 249 278 298 295 267 208 221 297 246 242 261 258 255 283 277 247 251 268 292 298 305 305
86 123 149 178 188 190 184 179 169 155 152 119 103 143 184 203 204 136 167 195 150 71 59 103 119 134 157 91 215 200 137 152 182 129 153 170 168 194 197 202 193 128 125 159 197 159 151 249 253 251 193 167 178 209 135 118 128 231 125 110 178 188 148 148 196 181 186 295 292 266 238 215 205 278 277 264 287 288 245 265 311 298 290 334 329 298 294 292
87 115 135 150 177 188 184 185 181 161 152 116 134 189 207 201 183 180 184 157 142 134 110 94 100 132 169 143 201 222 152 117 159 142 180 197 192 199 192 201 194 172 158 156 171 158 134 270 282 345 360 173 170 179 138 133 171 180 139 178 218 174 119 110 242 324 75 254 268 214 247 289 336 293 296 316 296 295 291 268 249 270 303 350 329 286 291 291
94 113 127 107 153 179 182 182 176 153 122 114 173 200 202 152 178 181 206 122 134 135 127 136 151 144 164 161 190 208 170 110 157 161 190 203 226 200 194 237 202 184 187 156 165 196 152 238 292 125 189 270 206 124 66 34 133 131 182 210 199 84 85 110 198 347 36 250 274 251 238 281 323 272 317 14 272 255 288 320 337 221 289 311 272 267 284 285
98 109 121 139 157 164 162 165 161 120 69 117 198 207 172 131 205 161 340 134 129 126 134 162 163 144 167 175 186 191 170 157 173 176 175 192 245 201 173 206 207 193 203 166 148 217 148 180 302 42 178 287 359 107 91 347 94 134 189 181 115 122 197 113 154 201 174 245 279 292 268 257 212 232 299 6 210 218 252 328 17 110 188 247 254 277 301 291
110 102 55 173 163 158 154 153 138 88 58 192 206 213 190 218 251 262 321 358 86 123 152 180 166 134 171 172 165 178 181 173 172 181 179 182 238 217 175 186 202 198 199 165 158 206 146 172 263 315 208 305 24 145 197 235 55 76 111 113 96 146 170 160 163 165 170 208 255 301 313 266 229 215 201 217 230 236 273 345 131 175 247 270 241 134 223 266
95 83 352 166 157 156 153 146 125 90 103 215 219 225 115 221 269 248 207 27 30 123 165 191 164 142 170 171 158 172 180 170 169 181 199 183 209 240 199 188 179 181 181 162 167 179 120 172 218 299 332 170 182 211 187 172 159 145 162 173 171 101 114 164 183 122 142 170 200 274 292 267 252 206 183 208 232 240 241 176 191 224 263 272 244 157 201 241
48 74 243 171 159 155 147 137 126 142 151 218 241 250 243 254 277 249 144 87 65 306 150 159 157 151 156 159 170 176 158 154 171 180 206 196 195 228 216 189 163 146 140 151 191 194 151 164 170 162 222 198 228 245 194 184 185 170 180 194 186 160 128 151 238 249 133 166 177 194 270 268 241 195 190 199 204 204 186 173 202 246 258 268 261 177 204 225
62 100 213 174 164 157 142 125 143 145 161 202 182 181 208 217 252 241 149 79 48 342 48 104 142 153 151 153 167 166 150 153 178 180 194 203 192 195 213 179 154 149 142 164 202 194 127 108 128 171 215 216 240 261 216 210 216 165 187 195 174 160 139 152 208 236 189 218 172 131 273 273 226 178 182 171 176 192 187 172 184 228 245 273 308 283 268 270
92 136 185 168 170 166 145 154 166 153 191 179 147 162 193 191 182 197 189 160 137 152 129 328 171 147 156 156 143 157 162 161 179 186 195 206 204 211 219 117 145 151 147 166 192 177 120 108 132 209 303 310 305 318 344 12 180 207 238 170 152 172 155 152 181 181 177 214 167 128 251 268 314 224 164 151 183 176 173 186 151 138 197 237 267 273 272 270
143 168 16 171 180 185 181 176 179 183 181 148 147 172 193 197 181 174 185 193 185 150 141 225 200 154 171 133 120 165 181 169 178 190 181 184 209 238 38 47 148 162 167 190 182 179 196 175 138 130 352 334 330 320 308 321 216 202 225 188 170 151 117 110 133 132 213 225 179 179 241 251 311 319 81 46 23 61 34 281 138 101 68 310 312 300 304 326
103 92 340 248 185 192 209 176 167 173 164 157 170 178 177 202 209 188 185 193 191 163 160 212 144 91 46 47 61 131 179 153 163 177 153 183 246 339 25 17 132 172 198 233 177 171 185 184 157 161 190 208 209 211 219 216 180 203 219 196 189 166 151 157 146 150 230 230 174 187 242 245 271 61 80 42 30 26 352 331 347 21 360 349 338 328 340 347
95 144 272 339 2 241 228 66 110 167 174 170 177 179 177 189 228 177 167 188 203 185 182 225 93 79 52 56 64 222 220 85 99 143 149 181 252 291 326 16 78 136 195 28 143 144 144 191 194 191 207 211 200 212 211 151 150 200 212 190 192 192 180 168 146 189 217 220 192 221 239 250 255 210 159 27 20 341 318 329 329 320 322 321 295 287 305 309
139 157 172 166 31 228 228 180 161 182 188 179 180 182 183 189 195 131 163 195 197 184 182 193 147 158 180 157 144 217 227 61 61 138 156 182 232 280 300 67 77 43 353 47 97 102 120 210 212 195 218 217 175 182 188 160 176 202 199 188 194 194 182 180 200 216 207 188 239 239 220 242 257 240 204 241 284 280 282 281 277 285 297 295 282 284 291 291
203 61 191 164 123 197 214 200 179 178 181 186 188 178 182 189 185 179 196 185 151 173 181 182 193 200 203 190 182 190 179 166 224 198 169 176 203 332 347 8 43 357 8 84 59 91 136 211 213 163 201 218 162 145 148 158 181 190 183 188 191 186 185 196 214 222 201 190 241 244 192 221 255 255 172 202 232 236 238 240 245 261 275 276 279 289 292 290
171 4 292 327 85 202 209 146 158 180 187 178 186 184 181 191 194 188 158 129 149 208 195 201 204 200 200 198 196 202 192 191 220 216 181 180 190 151 24 248 322 2 29 102 71 83 142 207 200 138 152 221 200 170 141 140 133 131 175 185 182 189 198 205 219 225 212 220 254 264 235 240 256 259 146 204 237 246 239 241 254 257 259 271 283 286 284 282
150 174 259 39 73 136 79 113 154 186 198 186 206 220 191 194 198 190 155 161 181 185 193 211 208 183 187 193 195 210 207 200 220 220 166 169 207 187 188 206 159 30 21 93 43 5 166 204 112 108 141 245 215 184 156 145 154 204 231 209 198 206 211 217 226 222 207 244 259 274 281 268 260 216 210 227 224 251 267 257 255 264 258 246 254 258 264 272
181 103 120 110 70 164 136 120 150 171 196 202 208 207 205 211 198 181 179 203 190 173 186 203 195 159 176 191 196 213 212 201 219 220 174 179 201 192 196 201 152 129 128 161 64 34 125 164 57 90 186 249 214 182 175 135 127 216 250 234 221 215 211 213 211 194 196 223 246 265 269 267 259 177 251 254 172 212 264 270 279 309 281 222 233 244 257 269
193 14 88 104 35 232 173 131 152 174 198 209 210 200 198 213 181 166 187 237 208 194 192 189 174 147 174 199 208 217 205 176 196 215 173 179 177 159 182 185 161 164 169 156 127 66 123 125 87 122 191 256 239 163 162 130 130 232 242 232 226 222 217 215 215 214 205 198 216 236 242 260 270 185 249 270 231 227 270 290 314 296 248 243 255 278 288 289